Location: Orangeville
(43.9200°N, 80.0943°W)
Time: 11:03:08
(UTC-05:00)

Tiangong - Pass Details

Date: 12 December 2021
Orbit: 383 x 386 km, 41.5° (Epoch: 19 January)

Event Time Altitude Azimuth Distance (km) Brightness Sun altitude
Rises 17:33:56 0° 242° (WSW) 2,273 7.4 -9.0°
Reaches altitude 10° 17:36:06 10° 234° (SW) 1,418 5.4 -9.3°
Maximum altitude 17:39:05 37° 165° (SSE) 625 2.2 -9.8°
Enters shadow 17:41:45 12° 98° (E) 1,292 3.2 -10.3°
